FW8369 Weather Reports


Display with metric or nautical units.
time (UTC)temp
F
wind
direction
speed
MPH
gust
MPH
rain 1hr
in
rain 24hr
in
rain mn
in
humidity
%
barometer
mb
20260904035904 87 323 0.0 3.0 0.00 0.00 0.00 74 1003.4
20260904034904 86 273 0.0 2.0 0.00 0.00 0.00 75 1003.5
20260904034404 86 268 1.0 3.0 0.00 0.00 0.00 75 1003.5
20260904033904 86 275 2.0 3.0 0.00 0.00 0.00 74 1003.5
20260904033404 86 228 0.0 2.0 0.00 0.00 0.00 75 1003.5
20260904032904 86 236 1.0 3.0 0.00 0.00 0.00 75 1003.6
20260904032403 85 291 1.0 3.0 0.00 0.00 0.00 75 1003.6
20260904031904 85 256 1.0 3.0 0.00 0.00 0.00 76 1003.6
20260904031404 85 236 1.0 6.0 0.00 0.00 0.00 75 1003.7
20260904030904 85 319 0.0 2.0 0.00 0.00 0.00 76 1003.7
20260904024903 85 269 1.0 3.0 0.00 0.00 0.00 76 1003.6
20260904024404 85 5 1.0 5.0 0.00 0.00 0.00 75 1003.7
20260904023904 85 287 0.0 3.0 0.00 0.00 0.00 75 1003.8
20260904023404 85 252 0.0 2.0 0.00 0.00 0.00 76 1003.8
20260904022904 84 237 0.0 3.0 0.00 0.00 0.00 75 1003.8
20260904022403 85 311 1.0 3.0 0.00 0.00 0.00 75 1003.8
20260904021904 85 230 1.0 3.0 0.00 0.00 0.00 75 1003.8
20260904021404 85 238 0.0 2.0 0.00 0.00 0.00 75 1003.7
20260904020904 85 258 0.0 1.0 0.00 0.00 0.00 75 1003.7
20260904020404 84 290 1.0 3.0 0.00 0.00 0.00 75 1003.6
20260904015904 85 218 1.0 3.0 0.00 0.00 0.00 75 1003.5
20260904015403 84 247 0.0 1.0 0.00 0.00 0.00 76 1003.5
20260904014904 84 231 1.0 3.0 0.00 0.00 0.00 76 1003.5
20260904013904 84 357 1.0 3.0 0.00 0.00 0.00 76 1003.5
20260904013403 84 263 0.0 1.0 0.00 0.00 0.00 76 1003.5
20260904012403 84 249 0.0 2.0 0.00 0.00 0.00 76 1003.5
20260904011903 84 240 0.0 3.0 0.00 0.00 0.00 76 1003.6
20260904011403 84 262 0.0 0.0 0.00 0.00 0.00 77 1003.5
20260904010904 83 250 0.0 1.0 0.00 0.00 0.00 77 1003.5
20260904010404 83 221 0.0 2.0 0.00 0.00 0.00 77 1003.5
20260904004904 82 240 1.0 2.0 0.00 0.00 0.00 79 1003.4
20260904004404 82 275 1.0 3.0 0.00 0.00 0.00 78 1003.3
20260904003903 82 334 1.0 3.0 0.00 0.00 0.00 78 1003.2
20260904003404 82 259 1.0 2.0 0.00 0.00 0.00 78 1003.2
20260904002904 82 323 0.0 3.0 0.00 0.00 0.00 79 1003.1
20260904002404 81 269 1.0 2.0 0.00 0.00 0.00 78 1003.0
20260904001904 81 331 1.0 3.0 0.00 0.00 0.00 79 1003.0
20260904000903 82 283 0.0 1.0 0.00 0.00 0.00 79 1003.0
20260904000403 82 279 0.0 3.0 0.00 0.00 0.00 79 1002.9
20260903235903 82 294 0.0 2.0 0.00 0.00 0.00 79 1002.8
20260903234904 82 312 0.0 1.0 0.00 0.00 0.00 79 1002.8
20260903234403 81 260 0.0 1.0 0.00 0.00 0.00 79 1002.7
20260903233903 81 258 1.0 2.0 0.00 0.00 0.00 79 1002.6
20260903233404 81 310 0.0 1.0 0.00 0.00 0.00 79 1002.6
20260903232903 81 284 0.0 2.0 0.00 0.00 0.00 79 1002.5
20260903232404 81 285 0.0 1.0 0.00 0.00 0.00 80 1002.5
20260903231903 81 273 0.0 3.0 0.00 0.00 0.00 79 1002.5
20260903231404 81 245 1.0 2.0 0.00 0.00 0.00 79 1002.4
20260903230904 81 285 0.0 1.0 0.00 0.00 0.00 79 1002.4
20260903230404 81 236 0.0 3.0 0.00 0.00 0.00 79 1002.3
20260903225903 81 276 0.0 1.0 0.00 0.00 0.00 79 1002.2
20260903225404 81 274 0.0 1.0 0.00 0.00 0.00 79 1002.1
20260903224904 81 275 0.0 1.0 0.00 0.00 0.00 79 1002.0
20260903224404 81 257 0.0 0.0 0.00 0.00 0.00 79 1002.0
20260903223904 81 254 0.0 1.0 0.00 0.00 0.00 79 1001.9
20260903223404 81 254 1.0 3.0 0.00 0.00 0.00 79 1001.9
20260903222404 81 270 0.0 1.0 0.00 0.00 0.00 79 1001.7
20260903221904 81 269 0.0 1.0 0.00 0.00 0.00 79 1001.8
20260903221404 81 269 0.0 2.0 0.00 0.00 0.00 79 1001.7
20260903220904 81 283 0.0 0.0 0.00 0.00 0.00 79 1001.7
20260903220404 81 283 0.0 1.0 0.00 0.00 0.00 79 1001.7
20260903215904 81 262 0.0 1.0 0.00 0.00 0.00 79 1001.6
20260903215404 81 250 1.0 2.0 0.00 0.00 0.00 79 1001.7
20260903214903 81 332 0.0 1.0 0.00 0.00 0.00 80 1001.7
20260903214403 81 333 0.0 2.0 0.00 0.00 0.00 79 1001.6
20260903213404 81 335 0.0 0.0 0.00 0.00 0.00 80 1001.5
20260903212404 81 337 1.0 2.0 0.00 0.00 0.00 79 1001.4
20260903211904 81 309 0.0 1.0 0.00 0.00 0.00 80 1001.4
20260903211404 81 308 0.0 1.0 0.00 0.00 0.00 80 1001.4
20260903210903 81 304 0.0 1.0 0.00 0.00 0.00 80 1001.3
20260903210404 81 304 0.0 1.0 0.00 0.00 0.00 80 1001.3
20260903205904 81 304 0.0 1.0 0.00 0.00 0.00 80 1001.2
20260903205404 82 300 0.0 0.0 0.00 0.00 0.00 80 1001.3
20260903204404 82 278 0.0 0.0 0.00 0.00 0.00 80 1001.3
20260903203904 82 271 1.0 2.0 0.00 0.00 0.00 79 1001.2
20260903203404 82 263 0.0 2.0 0.00 0.00 0.00 80 1001.2
20260903202904 82 265 0.0 1.0 0.00 0.00 0.00 79 1001.1
20260903202404 82 266 0.0 2.0 0.00 0.00 0.00 79 1001.1
20260903201904 82 253 1.0 3.0 0.00 0.00 0.00 79 1001.1
20260903201405 82 261 0.0 3.0 0.00 0.00 0.00 79 1001.0
20260903200904 82 246 0.0 3.0 0.00 0.00 0.00 79 1001.1
20260903200404 82 260 0.0 2.0 0.00 0.00 0.00 78 1001.0
20260903195904 82 264 0.0 1.0 0.00 0.00 0.00 78 1001.0
20260903195404 82 264 0.0 1.0 0.00 0.00 0.00 78 1001.0
20260903194904 82 262 0.0 1.0 0.00 0.00 0.00 78 1001.1
20260903194404 82 262 0.0 2.0 0.00 0.00 0.00 78 1001.0
20260903193903 82 264 0.0 2.0 0.00 0.00 0.00 78 1001.1
20260903193404 82 263 0.0 2.0 0.00 0.00 0.00 79 1001.0
20260903192904 82 264 0.0 1.0 0.00 0.00 0.00 79 1001.0
20260903192404 82 262 0.0 2.0 0.00 0.00 0.00 80 1001.0
20260903191904 82 285 0.0 1.0 0.00 0.00 0.00 79 1000.9
20260903191404 82 274 0.0 1.0 0.00 0.00 0.00 80 1001.0
20260903190904 82 268 0.0 1.0 0.00 0.00 0.00 79 1001.0
20260903185904 82 275 0.0 2.0 0.00 0.00 0.00 79 1001.1
20260903184904 82 267 0.0 2.0 0.00 0.00 0.00 79 1001.0
20260903184403 82 275 0.0 2.0 0.00 0.00 0.00 79 1001.0
20260903183403 82 257 0.0 3.0 0.00 0.00 0.00 79 1000.9
20260903182904 82 249 0.0 2.0 0.00 0.00 0.00 79 1001.0
20260903182404 82 264 0.0 2.0 0.00 0.00 0.00 79 1001.0
20260903181904 82 262 0.0 0.0 0.00 0.00 0.00 79 1001.0
20260903180903 82 262 0.0 2.0 0.00 0.00 0.00 79 1001.0
20260903180404 83 265 0.0 1.0 0.00 0.00 0.00 79 1001.0
20260903175403 83 259 0.0 0.0 0.00 0.00 0.00 79 1000.9
20260903174904 83 250 0.0 2.0 0.00 0.00 0.00 79 1000.9
20260903174403 83 276 0.0 3.0 0.00 0.00 0.00 79 1001.0
20260903173904 83 292 0.0 0.0 0.00 0.00 0.00 79 1000.9
20260903173404 83 290 0.0 1.0 0.00 0.00 0.00 79 1001.0
20260903172904 83 289 0.0 2.0 0.00 0.00 0.00 79 1001.0
20260903172404 83 283 0.0 1.0 0.00 0.00 0.00 79 1001.0
20260903171904 83 270 0.0 1.0 0.00 0.00 0.00 79 1001.0
20260903171404 83 267 0.0 0.0 0.00 0.00 0.00 79 1001.0
20260903170904 83 267 0.0 1.0 0.00 0.00 0.00 79 1001.0
20260903170404 83 278 0.0 3.0 0.00 0.00 0.00 79 1000.9
20260903165904 83 263 1.0 2.0 0.00 0.00 0.00 79 1001.0
20260903165404 83 271 0.0 3.0 0.00 0.00 0.00 79 1001.0
20260903164904 83 256 1.0 3.0 0.00 0.00 0.00 78 1000.9
20260903164404 83 276 0.0 2.0 0.00 0.00 0.00 78 1000.9
20260903163904 84 314 0.0 1.0 0.00 0.00 0.00 78 1000.9
20260903163404 84 314 0.0 1.0 0.00 0.00 0.00 78 1000.9
20260903162904 84 314 0.0 1.0 0.00 0.00 0.00 79 1000.8
20260903162404 84 317 0.0 1.0 0.00 0.00 0.00 79 1001.0
20260903161404 84 318 1.0 2.0 0.00 0.00 0.00 78 1000.9
20260903160904 84 281 0.0 1.0 0.00 0.00 0.00 77 1000.8
20260903160404 84 275 0.0 0.0 0.00 0.00 0.00 77 1000.8
20260903155905 84 274 0.0 1.0 0.00 0.00 0.00 77 1000.9
20260903155404 84 273 0.0 0.0 0.00 0.00 0.00 77 1000.8
20260903154904 84 273 0.0 1.0 0.00 0.00 0.00 77 1000.8
20260903154404 84 279 0.0 2.0 0.00 0.00 0.00 77 1000.8
20260903153904 84 283 0.0 1.0 0.00 0.00 0.00 77 1000.8
20260903152904 84 300 0.0 1.0 0.00 0.00 0.00 77 1000.9
20260903152404 84 309 0.0 0.0 0.00 0.00 0.00 77 1000.9
20260903151904 84 329 0.0 2.0 0.00 0.00 0.00 77 1000.9
20260903150903 84 323 0.0 2.0 0.00 0.00 0.00 77 1000.9
20260903150404 84 351 0.0 2.0 0.00 0.00 0.00 77 1000.9
20260903145904 84 266 0.0 1.0 0.00 0.00 0.00 78 1000.8
20260903145404 83 234 1.0 3.0 0.00 0.00 0.00 78 1000.9
20260903144904 83 1 0.0 3.0 0.00 0.00 0.00 78 1000.8
20260903144404 83 357 1.0 2.0 0.00 0.00 0.00 78 1000.8
20260903143904 83 29 0.0 2.0 0.00 0.00 0.00 78 1000.8
20260903143404 83 42 0.0 3.0 0.00 0.00 0.00 78 1000.7
20260903142904 83 40 1.0 2.0 0.00 0.00 0.00 78 1000.7
20260903142404 84 37 1.0 2.0 0.00 0.00 0.00 79 1000.6
20260903141904 84 313 0.0 1.0 0.00 0.00 0.00 79 1000.6
20260903141404 84 23 1.0 2.0 0.00 0.00 0.00 79 1000.5
20260903140904 84 35 1.0 2.0 0.00 0.00 0.00 79 1000.5
20260903140403 84 336 0.0 2.0 0.00 0.00 0.00 79 1000.5
20260903135905 83 285 0.0 0.0 0.00 0.00 0.00 80 1000.5
20260903135404 83 37 1.0 2.0 0.00 0.00 0.00 80 1000.5
20260903134903 83 281 0.0 1.0 0.00 0.00 0.00 80 1000.5
20260903133904 83 350 2.0 3.0 0.00 0.00 0.00 80 1000.4
20260903133404 83 18 1.0 3.0 0.00 0.00 0.00 79 1000.4
20260903132904 83 285 0.0 3.0 0.00 0.00 0.00 79 1000.3
20260903132403 83 16 1.0 2.0 0.00 0.00 0.00 79 1000.3
20260903131905 83 339 1.0 3.0 0.00 0.00 0.00 80 1000.3
20260903131404 83 28 1.0 3.0 0.00 0.00 0.00 80 1000.3
20260903130904 83 338 1.0 5.0 0.00 0.00 0.00 80 1000.3
20260903130404 83 40 1.0 3.0 0.00 0.00 0.00 80 1000.2
20260903125904 83 44 1.0 3.0 0.00 0.00 0.00 81 1000.1
20260903125403 83 61 1.0 3.0 0.00 0.00 0.00 81 1000.1
20260903124904 83 354 1.0 3.0 0.00 0.00 0.00 81 1000.0
20260903124404 83 335 0.0 2.0 0.00 0.00 0.00 81 1000.0
20260903123904 83 33 1.0 5.0 0.00 0.00 0.00 81 999.9
20260903123404 83 338 0.0 3.0 0.00 0.00 0.00 82 999.9
20260903122904 83 350 1.0 5.0 0.00 0.00 0.00 81 1000.0
20260903122404 83 294 1.0 2.0 0.00 0.00 0.00 82 1000.0
20260903121905 83 349 2.0 3.0 0.00 0.00 0.00 82 999.9
20260903121404 83 325 0.0 2.0 0.00 0.00 0.00 81 999.8
20260903120903 83 351 1.0 5.0 0.00 0.00 0.00 81 999.9
20260903120404 83 0 0.0 2.0 0.00 0.00 0.00 81 999.8
20260903115904 83 305 0.0 1.0 0.00 0.00 0.00 81 999.8
20260903113903 84 54 2.0 5.0 0.00 0.00 0.00 80 999.7
20260903112404 84 16 1.0 3.0 0.00 0.00 0.00 79 999.6
20260903111904 85 51 2.0 5.0 0.00 0.00 0.00 79 999.5
20260903110903 85 332 0.0 2.0 0.00 0.00 0.00 78 999.4
20260903110404 85 344 0.0 1.0 0.00 0.00 0.00 77 999.4
20260903105904 85 306 0.0 1.0 0.00 0.00 0.00 78 999.3
20260903105403 85 306 0.0 1.0 0.00 0.00 0.00 77 999.3
20260903104904 85 354 1.0 3.0 0.00 0.00 0.00 77 999.3
20260903104403 85 33 1.0 3.0 0.00 0.00 0.00 77 999.2
20260903103904 85 2 0.0 2.0 0.00 0.00 0.00 77 999.2
20260903103404 85 304 0.0 1.0 0.00 0.00 0.00 77 999.2
20260903102903 85 341 0.0 1.0 0.00 0.00 0.00 77 999.1
20260903102403 85 51 1.0 3.0 0.00 0.00 0.00 77 999.1
20260903101404 85 6 0.0 3.0 0.00 0.00 0.00 77 999.0
20260903095404 85 299 0.0 2.0 0.00 0.00 0.00 76 998.7
20260903094404 86 35 0.0 2.0 0.00 0.00 0.00 76 998.6
20260903093904 86 326 0.0 0.0 0.00 0.00 0.00 76 998.6
20260903092904 86 277 0.0 1.0 0.00 0.00 0.00 76 998.5
20260903092403 86 275 0.0 1.0 0.00 0.00 0.00 76 998.5
20260903091903 86 304 0.0 1.0 0.00 0.00 0.00 75 998.4
20260903091404 87 314 0.0 1.0 0.00 0.00 0.00 75 998.4
20260903090904 87 312 0.0 1.0 0.00 0.00 0.00 74 998.4
20260903090404 87 314 0.0 2.0 0.00 0.00 0.00 74 998.3
20260903085904 87 306 0.0 1.0 0.00 0.00 0.00 73 998.3
20260903085404 87 250 1.0 2.0 0.00 0.00 0.00 73 998.3
20260903084904 87 263 0.0 2.0 0.00 0.00 0.00 73 998.1
20260903084404 87 265 1.0 3.0 0.00 0.00 0.00 73 998.0
20260903083904 88 277 0.0 2.0 0.00 0.00 0.00 73 998.0
20260903082904 88 263 1.0 5.0 0.00 0.00 0.00 71 998.1
20260903082403 88 279 1.0 3.0 0.00 0.00 0.00 71 998.0
20260903081903 88 277 0.0 1.0 0.00 0.00 0.00 72 998.0
20260903081403 87 242 0.0 1.0 0.00 0.00 0.00 73 997.9
20260903080904 87 243 1.0 3.0 0.00 0.00 0.00 73 997.9
20260903080404 87 230 1.0 3.0 0.00 0.00 0.00 73 997.9
20260903075904 87 245 1.0 5.0 0.00 0.00 0.00 74 998.0
20260903074404 87 259 1.0 3.0 0.00 0.00 0.00 73 997.9
20260903073903 88 269 1.0 5.0 0.00 0.00 0.00 73 997.9
20260903073404 88 268 1.0 3.0 0.00 0.00 0.00 73 997.9
20260903072903 88 247 0.0 3.0 0.00 0.00 0.00 73 998.0
20260903072404 88 226 0.0 2.0 0.00 0.00 0.00 73 998.0
20260903071404 88 255 1.0 3.0 0.00 0.00 0.00 72 998.0
20260903070904 89 265 1.0 3.0 0.00 0.00 0.00 71 998.0
20260903070404 89 237 1.0 3.0 0.00 0.00 0.00 71 998.0
20260903065904 89 260 1.0 3.0 0.00 0.00 0.00 71 998.0
20260903064904 88 259 0.0 6.0 0.00 0.00 0.00 72 997.9
20260903064404 88 197 1.0 3.0 0.00 0.00 0.00 72 998.0
20260903063904 87 216 1.0 3.0 0.00 0.00 0.00 73 998.1
20260903063403 87 213 1.0 3.0 0.00 0.00 0.00 73 998.1
20260903062903 87 286 0.0 5.0 0.00 0.00 0.00 73 998.3
20260903062404 87 247 1.0 5.0 0.00 0.00 0.00 73 998.3
20260903061404 87 249 1.0 3.0 0.00 0.00 0.00 74 998.4
20260903060904 87 262 1.0 5.0 0.00 0.00 0.00 74 998.4
20260903060403 87 266 1.0 3.0 0.00 0.00 0.00 73 998.5
20260903055904 86 254 1.0 3.0 0.00 0.00 0.00 74 998.5
20260903055404 86 254 2.0 3.0 0.00 0.00 0.00 74 998.5
20260903054904 86 230 2.0 7.0 0.00 0.00 0.00 74 998.6
20260903054404 86 226 1.0 3.0 0.00 0.00 0.00 74 998.5
20260903053904 86 224 1.0 5.0 0.00 0.00 0.00 74 998.6
20260903053404 86 252 0.0 3.0 0.00 0.00 0.00 75 998.5
20260903052904 86 224 1.0 5.0 0.00 0.00 0.00 74 998.6
20260903052404 86 241 1.0 5.0 0.00 0.00 0.00 74 998.6
20260903051904 86 223 1.0 3.0 0.00 0.00 0.00 74 998.6
20260903051403 87 284 1.0 3.0 0.00 0.00 0.00 74 998.7
20260903050904 86 293 1.0 3.0 0.00 0.00 0.00 74 998.7
20260903045904 87 269 0.0 5.0 0.00 0.00 0.00 74 998.7
20260903045404 87 163 1.0 3.0 0.00 0.00 0.00 73 998.7
20260903044904 87 253 0.0 3.0 0.00 0.00 0.00 73 998.8
20260903044404 87 248 0.0 1.0 0.00 0.00 0.00 74 998.8
20260903042904 87 251 2.0 3.0 0.00 0.00 0.00 73 998.9
20260903042403 87 263 1.0 5.0 0.00 0.00 0.00 73 998.8
20260903041904 88 247 1.0 3.0 0.00 0.00 0.00 72 998.9
20260903041404 88 267 1.0 3.0 0.00 0.00 0.00 71 998.9
20260903040904 88 245 1.0 6.0 0.00 0.00 0.00 71 998.9